Stillwater, OK

4:52 AM CDT on July 27, 2017 (GMT -0500)
Stillwater Municipal

Weather History for KSWO - March, 2013

Change the Weather History Date:

Saturday, March 23, 2013

  Actual Average Record
Temperature  
Mean Temperature 38 °F -  
Max Temperature 42 °F 61 °F 86 °F (2017)
Min Temperature 35 °F 39 °F 27 °F (2002)
Degree Days  
Heating Degree Days 26    
Moisture  
Dew Point 37 °F    
Average Humidity 93    
Maximum Humidity 100    
Minimum Humidity 79    
Precipitation  
Precipitation 0.04 in - - ()
Sea Level Pressure  
Sea Level Pressure 29.84 in    
Wind  
Wind Speed 10 mph (NE)    
Max Wind Speed 20 mph    
Max Gust Speed 25 mph    
Visibility 5 miles    
Events Rain    
Averages and records for this station are not official NWS values.
T = Trace of Precipitation, MM = Missing Value Source: NWS Daily Summary

Daily Weather History Graph

Daily Weather History Graph

Search for Another Location

Airport or City:

Trip Planner

Search our weather history database for the weather conditions in past years. The results will help you decide how hot, cold, wet, or windy it might be!

Date:

Astronomy

Mar. 23, 2013 Rise Set
Actual Time 7:27 AM CDT 7:42 PM CDT
Civil Twilight 7:01 AM CDT 8:08 PM CDT
Nautical Twilight 6:31 AM CDT 8:38 PM CDT
Astronomical Twilight 6:01 AM CDT 9:09 PM CDT
Moon 4:16 PM CDT (3/23) 4:58 AM CDT (3/23)
Length of Visible Light 13h 07m
Length of Day
12h 15m
Waxing Gibbous, 85% of the Moon is Illuminated
Mar 23
Waxing Gibbous
Mar 27
Full
Apr 2
Last Quarter
Apr 10
New
Apr 18
First Quarter

Hourly Weather History & Observations

Time (CDT) Temp. Windchill Dew Point Humidity Pressure Visibility Wind Dir Wind Speed Gust Speed Precip Events Conditions
12:53 AM 42.1 °F 35.7 °F 36.0 °F 79% 29.91 in 9.0 mi ENE 11.5 mph - N/A   Overcast
1:53 AM 41.0 °F 34.3 °F 36.0 °F 82% 29.88 in 9.0 mi ENE 11.5 mph - N/A   Overcast
2:53 AM 41.0 °F 34.3 °F 36.0 °F 82% 29.87 in 8.0 mi ENE 11.5 mph - N/A   Overcast
3:17 AM 41.0 °F 36.4 °F 35.6 °F 81% 29.87 in 8.0 mi ENE 6.9 mph - N/A   Overcast
3:53 AM 39.9 °F 31.8 °F 35.1 °F 83% 29.84 in 8.0 mi ENE 15.0 mph - N/A   Overcast
4:53 AM 39.9 °F 33.4 °F 35.1 °F 83% 29.86 in 7.0 mi ENE 10.4 mph - N/A   Overcast
5:53 AM 39.0 °F 34.0 °F 37.0 °F 93% 29.86 in 3.0 mi ENE 6.9 mph - N/A   Overcast
6:03 AM 39.2 °F 35.0 °F 37.4 °F 93% 29.87 in 2.5 mi ENE 5.8 mph - N/A   Overcast
6:43 AM 37.4 °F 30.8 °F 37.4 °F 100% 29.87 in 2.0 mi ENE 9.2 mph - 0.00 in   Overcast
6:53 AM 37.9 °F 30.9 °F 37.0 °F 97% 29.87 in 2.0 mi ENE 10.4 mph - 0.01 in   Overcast
7:23 AM 37.4 °F 29.3 °F 37.4 °F 100% 29.85 in 2.5 mi NE 12.7 mph - N/A   Overcast
7:33 AM 37.4 °F 29.8 °F 37.4 °F 100% 29.87 in 3.0 mi NE 11.5 mph - N/A   Overcast
7:53 AM 37.9 °F 31.5 °F 36.0 °F 93% 29.87 in 5.0 mi ENE 9.2 mph - N/A   Overcast
8:16 AM 37.4 °F 30.8 °F 37.4 °F 100% 29.88 in 1.8 mi ENE 9.2 mph - 0.00 in Rain Light Rain
8:53 AM 37.9 °F 30.0 °F 37.0 °F 97% 29.89 in 1.5 mi ENE 12.7 mph - 0.00 in Rain Light Rain
9:29 AM 37.4 °F 30.3 °F 37.4 °F 100% 29.87 in 2.0 mi ENE 10.4 mph - 0.00 in   Overcast
9:53 AM 39.0 °F 31.4 °F 37.0 °F 93% 29.87 in 6.0 mi ENE 12.7 mph - 0.00 in   Overcast
10:53 AM 39.0 °F 33.4 °F 37.0 °F 93% 29.89 in 9.0 mi ENE 8.1 mph - 0.01 in Rain Light Rain
11:53 AM 39.9 °F 33.9 °F 37.9 °F 93% 29.88 in 5.0 mi NE 9.2 mph - 0.00 in   Overcast
12:18 PM 39.2 °F 33.0 °F 37.4 °F 93% 29.87 in 2.0 mi NE 9.2 mph - N/A   Overcast
12:27 PM 39.2 °F 31.6 °F 37.4 °F 93% 29.85 in 1.8 mi ENE 12.7 mph - N/A   Overcast
12:40 PM 39.2 °F 32.5 °F 39.2 °F 100% 29.85 in 2.0 mi ENE 10.4 mph - 0.00 in Rain Light Rain
12:53 PM 39.9 °F 35.8 °F 37.9 °F 93% 29.87 in 2.5 mi NE 5.8 mph - 0.00 in Rain Light Rain
1:23 PM 39.2 °F 35.0 °F 37.4 °F 93% 29.86 in 1.5 mi NE 5.8 mph - 0.00 in Rain Light Rain
1:51 PM 39.2 °F 32.5 °F 37.4 °F 93% 29.83 in 1.8 mi ENE 10.4 mph - 0.01 in Rain Light Rain
1:53 PM 39.9 °F 33.9 °F 39.0 °F 97% 29.83 in 2.0 mi ENE 9.2 mph - 0.01 in Rain Light Rain
2:17 PM 41.0 °F 35.2 °F 39.2 °F 93% 29.80 in 3.0 mi NE 9.2 mph - 0.00 in Rain Light Rain
2:53 PM 41.0 °F 35.8 °F 39.0 °F 93% 29.79 in 10.0 mi ENE 8.1 mph - 0.00 in   Overcast
3:53 PM 42.1 °F 39.2 °F 39.0 °F 89% 29.77 in 10.0 mi NE 4.6 mph - N/A   Overcast
4:53 PM 41.0 °F 35.8 °F 37.9 °F 89% 29.76 in 8.0 mi NNE 8.1 mph - N/A   Overcast
5:53 PM 41.0 °F 35.2 °F 39.0 °F 93% 29.79 in 4.0 mi North 9.2 mph - N/A   Overcast
6:12 PM 41.0 °F 36.4 °F 39.2 °F 93% 29.78 in 4.0 mi North 6.9 mph - N/A   Overcast
6:53 PM 41.0 °F 35.8 °F 39.0 °F 93% 29.78 in 3.0 mi NNE 8.1 mph - N/A   Overcast
7:11 PM 39.2 °F 33.0 °F 39.2 °F 100% 29.77 in 4.0 mi NNE 9.2 mph - N/A   Overcast
7:45 PM 39.2 °F 29.6 °F 37.4 °F 93% 29.72 in 9.0 mi NNE 19.6 mph - N/A   Overcast
7:53 PM 39.0 °F 29.9 °F 37.9 °F 96% 29.73 in 10.0 mi NNE 17.3 mph 25.3 mph 0.01 in   Overcast
8:53 PM 37.9 °F 30.0 °F 36.0 °F 93% 29.79 in 10.0 mi North 12.7 mph - N/A   Overcast
9:53 PM 37.0 °F 28.5 °F 35.1 °F 93% 29.85 in 9.0 mi North 13.8 mph 21.9 mph N/A   Overcast
10:33 PM 37.4 °F 29.3 °F 33.8 °F 87% 29.86 in 9.0 mi North 12.7 mph - N/A   Overcast
10:53 PM 36.0 °F 27.5 °F 34.0 °F 93% 29.86 in 8.0 mi North 12.7 mph - N/A   Overcast
11:50 PM 35.6 °F 28.6 °F 33.8 °F 93% 29.86 in 5.0 mi NNW 9.2 mph - 0.00 in Rain Light Freezing Rain
11:53 PM 35.1 °F 29.3 °F 34.0 °F 96% 29.87 in 5.0 mi NW 6.9 mph - 0.00 in Rain Light Freezing Rain
11:57 PM 35.6 °F 29.2 °F 33.8 °F 93% 29.86 in 4.0 mi NW 8.1 mph - 0.00 in Rain Light Freezing Rain